Time,TemperatureF,DewpointF,PressureIn,WindDirection,WindDirectionDegrees,WindSpeedMPH,WindSpeedGustMPH,Humidity,HourlyPrecipIn,Conditions,Clouds,dailyrainin,SoftwareType,DateUTC
2013-03-20 00:05:00,46.9,46.0,29.78,ESE,113,0.0,2.0,98,0.08,,,0.00,weatherlink.com 1.10,2013-03-20 07:05:00,
2013-03-20 00:20:00,47.6,47.0,29.77,NW,326,0.0,3.0,98,0.08,,,0.01,weatherlink.com 1.10,2013-03-20 07:20:00,
2013-03-20 00:35:00,49.2,49.0,29.77,ESE,109,2.0,11.0,98,0.08,,,0.03,weatherlink.com 1.10,2013-03-20 07:35:00,
2013-03-20 00:50:00,49.8,49.0,29.76,East,86,2.0,6.0,98,0.05,,,0.03,weatherlink.com 1.10,2013-03-20 07:50:00,
2013-03-20 01:05:00,50.2,50.0,29.76,West,260,1.0,6.0,98,0.07,,,0.07,weatherlink.com 1.10,2013-03-20 08:05:00,
2013-03-20 01:20:00,50.2,49.0,29.75,ESE,112,0.0,3.0,97,0.08,,,0.09,weatherlink.com 1.10,2013-03-20 08:20:00,
2013-03-20 01:35:00,50.2,49.0,29.75,East,95,1.0,10.0,97,0.06,,,0.09,weatherlink.com 1.10,2013-03-20 08:35:00,
2013-03-20 01:50:00,50.3,50.0,29.74,SE,129,2.0,7.0,97,0.07,,,0.10,weatherlink.com 1.10,2013-03-20 08:50:00,
2013-03-20 02:05:00,50.6,50.0,29.73,SE,126,6.0,9.0,97,0.03,,,0.10,weatherlink.com 1.10,2013-03-20 09:05:00,
2013-03-20 02:20:00,50.9,50.0,29.73,ESE,112,7.0,7.0,96,0.01,,,0.10,weatherlink.com 1.10,2013-03-20 09:20:00,
2013-03-20 02:35:00,51.3,50.0,29.72,ESE,118,4.0,12.0,95,0.01,,,0.10,weatherlink.com 1.10,2013-03-20 09:35:00,
2013-03-20 02:50:00,51.7,50.0,29.72,ESE,103,3.0,13.0,94,0.00,,,0.10,weatherlink.com 1.10,2013-03-20 09:50:00,
2013-03-20 03:05:00,51.8,50.0,29.71,SW,222,1.0,11.0,94,0.00,,,0.10,weatherlink.com 1.10,2013-03-20 10:05:00,
2013-03-20 03:20:00,51.8,50.0,29.71,South,173,8.0,13.0,94,0.00,,,0.10,weatherlink.com 1.10,2013-03-20 10:20:00,
2013-03-20 03:35:00,51.8,50.0,29.70,SSE,149,4.0,13.0,94,0.00,,,0.10,weatherlink.com 1.10,2013-03-20 10:35:00,
2013-03-20 03:51:00,51.7,50.0,29.70,SE,142,3.0,10.0,95,0.01,,,0.11,weatherlink.com 1.10,2013-03-20 10:51:00,
2013-03-20 04:06:00,51.7,50.0,29.69,ESE,123,2.0,10.0,95,0.02,,,0.12,weatherlink.com 1.10,2013-03-20 11:06:00,
2013-03-20 04:21:00,51.6,50.0,29.69,SE,138,3.0,13.0,95,0.03,,,0.13,weatherlink.com 1.10,2013-03-20 11:21:00,
2013-03-20 04:36:00,51.5,50.0,29.69,East,97,1.0,11.0,95,0.04,,,0.14,weatherlink.com 1.10,2013-03-20 11:36:00,
2013-03-20 06:06:00,51.4,50.0,29.67,SSE,160,2.0,18.0,95,0.03,,,0.19,weatherlink.com 1.10,2013-03-20 13:06:00,
2013-03-20 06:36:00,51.5,50.0,29.68,NE,56,2.0,11.0,95,0.01,,,0.19,weatherlink.com 1.10,2013-03-20 13:36:00,
2013-03-20 06:51:00,51.3,50.0,29.67,ESE,105,5.0,11.0,96,0.06,,,0.24,weatherlink.com 1.10,2013-03-20 13:51:00,
2013-03-20 07:21:00,51.3,50.0,29.67,ESE,105,11.0,11.0,96,0.11,,,0.30,weatherlink.com 1.10,2013-03-20 14:21:00,
2013-03-20 07:36:00,51.2,50.0,29.68,SE,139,4.0,8.0,96,0.14,,,0.34,weatherlink.com 1.10,2013-03-20 14:36:00,
2013-03-20 08:06:00,51.1,50.0,29.71,South,173,1.0,3.0,96,0.13,,,0.41,weatherlink.com 1.10,2013-03-20 15:06:00,
2013-03-20 08:21:00,50.7,50.0,29.72,WSW,237,2.0,12.0,96,0.15,,,0.45,weatherlink.com 1.10,2013-03-20 15:21:00,
2013-03-20 08:36:00,50.0,48.0,29.75,WSW,252,6.0,8.0,92,0.12,,,0.46,weatherlink.com 1.10,2013-03-20 15:36:00,
2013-03-20 08:51:00,48.9,46.0,29.76,NW,305,1.0,9.0,91,0.09,,,0.47,weatherlink.com 1.10,2013-03-20 15:51:00,
2013-03-20 09:06:00,48.5,46.0,29.77,West,260,2.0,9.0,91,0.05,,,0.47,weatherlink.com 1.10,2013-03-20 16:06:00,
2013-03-20 09:21:00,48.0,46.0,29.79,South,172,1.0,11.0,91,0.01,,,0.47,weatherlink.com 1.10,2013-03-20 16:21:00,
2013-03-20 09:36:00,47.9,45.0,29.80,WNW,298,0.0,7.0,90,0.01,,,0.47,weatherlink.com 1.10,2013-03-20 16:36:00,
2013-03-20 09:51:00,47.5,44.0,29.82,SSE,158,1.0,11.0,88,0.00,,,0.47,weatherlink.com 1.10,2013-03-20 16:51:00,
2013-03-20 10:06:00,48.6,45.0,29.84,West,264,5.0,10.0,87,0.00,,,0.47,weatherlink.com 1.10,2013-03-20 17:06:00,
2013-03-20 10:21:00,49.8,45.0,29.85,NW,315,4.0,15.0,83,0.00,,,0.47,weatherlink.com 1.10,2013-03-20 17:21:00,
2013-03-20 10:36:00,51.0,45.0,29.86,South,183,3.0,10.0,81,0.00,,,0.47,weatherlink.com 1.10,2013-03-20 17:36:00,
2013-03-20 10:51:00,50.8,46.0,29.86,SSE,158,1.0,7.0,82,0.00,,,0.47,weatherlink.com 1.10,2013-03-20 17:51:00,
2013-03-20 11:07:00,51.7,46.0,29.88,WNW,295,0.0,10.0,80,0.00,,,0.47,weatherlink.com 1.10,2013-03-20 18:07:00,
2013-03-20 11:22:00,50.9,45.0,29.89,NW,315,0.0,14.0,79,0.00,,,0.47,weatherlink.com 1.10,2013-03-20 18:22:00,
2013-03-20 11:37:00,51.4,44.0,29.91,WSW,240,2.0,16.0,75,0.00,,,0.47,weatherlink.com 1.10,2013-03-20 18:37:00,
2013-03-20 11:52:00,50.9,42.0,29.92,SE,129,3.0,14.0,72,0.00,,,0.47,weatherlink.com 1.10,2013-03-20 18:52:00,
2013-03-20 12:07:00,51.8,43.0,29.93,WSW,243,4.0,11.0,71,0.00,,,0.47,weatherlink.com 1.10,2013-03-20 19:07:00,
2013-03-20 12:23:00,53.8,43.0,29.93,WSW,252,1.0,9.0,68,0.00,,,0.47,weatherlink.com 1.10,2013-03-20 19:23:00,
2013-03-20 13:07:00,49.0,42.0,29.97,West,278,8.0,10.0,78,0.01,,,0.48,weatherlink.com 1.10,2013-03-20 20:07:00,
2013-03-20 13:22:00,49.1,43.0,29.97,SSW,193,2.0,9.0,78,0.01,,,0.48,weatherlink.com 1.10,2013-03-20 20:22:00,
2013-03-20 13:37:00,50.6,44.0,29.98,WNW,284,2.0,7.0,77,0.01,,,0.48,weatherlink.com 1.10,2013-03-20 20:37:00,
2013-03-20 13:52:00,49.7,42.0,29.99,WNW,297,7.0,11.0,76,0.01,,,0.49,weatherlink.com 1.10,2013-03-20 20:52:00,
2013-03-20 14:07:00,48.9,44.0,30.00,East,97,1.0,9.0,83,0.01,,,0.49,weatherlink.com 1.10,2013-03-20 21:07:00,
2013-03-20 14:22:00,51.1,42.0,30.00,WSW,248,2.0,16.0,71,0.01,,,0.49,weatherlink.com 1.10,2013-03-20 21:22:00,
2013-03-20 14:37:00,50.1,41.0,30.01,WSW,250,8.0,12.0,70,0.01,,,0.49,weatherlink.com 1.10,2013-03-20 21:37:00,
2013-03-20 14:52:00,50.6,41.0,30.01,South,191,0.0,7.0,69,0.00,,,0.49,weatherlink.com 1.10,2013-03-20 21:52:00,
2013-03-20 15:07:00,50.3,40.0,30.02,WSW,252,4.0,13.0,67,0.00,,,0.49,weatherlink.com 1.10,2013-03-20 22:07:00,
2013-03-20 15:22:00,49.9,41.0,30.04,SW,219,5.0,11.0,71,0.00,,,0.49,weatherlink.com 1.10,2013-03-20 22:22:00,
2013-03-20 15:52:00,47.7,40.0,30.06,WNW,288,4.0,8.0,76,0.00,,,0.49,weatherlink.com 1.10,2013-03-20 22:52:00,
2013-03-20 16:07:00,46.9,42.0,30.06,WSW,245,3.0,9.0,82,0.00,,,0.49,weatherlink.com 1.10,2013-03-20 23:07:00,
2013-03-20 16:22:00,48.2,41.0,30.06,West,276,1.0,8.0,76,0.00,,,0.49,weatherlink.com 1.10,2013-03-20 23:22:00,
2013-03-20 16:37:00,49.0,40.0,30.07,NNW,332,3.0,13.0,72,0.00,,,0.49,weatherlink.com 1.10,2013-03-20 23:37:00,
2013-03-20 16:52:00,47.7,40.0,30.09,SW,218,2.0,15.0,76,0.00,,,0.49,weatherlink.com 1.10,2013-03-20 23:52:00,
2013-03-20 17:07:00,44.4,41.0,30.09,SW,235,0.0,10.0,88,0.03,,,0.52,weatherlink.com 1.10,2013-03-21 00:07:00,
2013-03-20 17:22:00,45.2,41.0,30.11,West,280,2.0,6.0,85,0.03,,,0.52,weatherlink.com 1.10,2013-03-21 00:22:00,
2013-03-20 17:37:00,45.2,40.0,30.11,SW,214,6.0,9.0,83,0.03,,,0.52,weatherlink.com 1.10,2013-03-21 00:37:00,
2013-03-20 17:52:00,46.2,41.0,30.11,NNW,328,0.0,11.0,83,0.03,,,0.52,weatherlink.com 1.10,2013-03-21 00:52:00,
2013-03-20 18:07:00,44.9,39.0,30.12,West,269,1.0,12.0,79,0.00,,,0.52,weatherlink.com 1.10,2013-03-21 01:07:00,
2013-03-20 18:22:00,44.6,39.0,30.14,South,184,0.0,4.0,81,0.00,,,0.52,weatherlink.com 1.10,2013-03-21 01:22:00,
2013-03-20 18:38:00,43.2,39.0,30.15,West,262,2.0,8.0,86,0.02,,,0.54,weatherlink.com 1.10,2013-03-21 01:38:00,
2013-03-20 18:53:00,42.4,39.0,30.16,South,190,1.0,4.0,86,0.02,,,0.54,weatherlink.com 1.10,2013-03-21 01:53:00,
2013-03-20 19:08:00,41.8,38.0,30.17,NW,308,0.0,2.0,87,0.02,,,0.54,weatherlink.com 1.10,2013-03-21 02:08:00,
2013-03-20 19:23:00,40.8,37.0,30.18,SW,229,0.0,0.0,87,0.02,,,0.54,weatherlink.com 1.10,2013-03-21 02:23:00,
2013-03-20 19:38:00,39.9,37.0,30.18,NW,312,0.0,1.0,89,0.00,,,0.54,weatherlink.com 1.10,2013-03-21 02:38:00,
2013-03-20 19:53:00,40.3,37.0,30.19,South,172,0.0,3.0,89,0.00,,,0.54,weatherlink.com 1.10,2013-03-21 02:53:00,
2013-03-20 20:08:00,39.9,37.0,30.20,ESE,118,0.0,1.0,90,0.00,,,0.54,weatherlink.com 1.10,2013-03-21 03:08:00,
2013-03-20 20:23:00,40.5,38.0,30.21,NNW,328,0.0,1.0,90,0.00,,,0.54,weatherlink.com 1.10,2013-03-21 03:23:00,
2013-03-20 20:38:00,41.0,38.0,30.22,SW,215,0.0,6.0,88,0.00,,,0.54,weatherlink.com 1.10,2013-03-21 03:38:00,
2013-03-20 20:53:00,41.3,37.0,30.22,SSW,210,0.0,8.0,85,0.00,,,0.54,weatherlink.com 1.10,2013-03-21 03:53:00,
2013-03-20 21:08:00,40.3,36.0,30.23,NE,34,0.0,1.0,85,0.00,,,0.54,weatherlink.com 1.10,2013-03-21 04:08:00,
2013-03-20 21:23:00,38.8,36.0,30.24,NE,43,0.0,0.0,88,0.00,,,0.54,weatherlink.com 1.10,2013-03-21 04:23:00,
2013-03-20 21:38:00,37.9,35.0,30.25,NW,316,0.0,1.0,90,0.00,,,0.54,weatherlink.com 1.10,2013-03-21 04:38:00,
2013-03-20 21:53:00,38.0,35.0,30.25,WSW,250,0.0,1.0,89,0.00,,,0.54,weatherlink.com 1.10,2013-03-21 04:53:00,
2013-03-20 22:08:00,36.8,35.0,30.26,WSW,250,0.0,0.0,92,0.00,,,0.54,weatherlink.com 1.10,2013-03-21 05:08:00,
2013-03-20 22:23:00,36.8,35.0,30.27,SE,127,0.0,0.0,92,0.00,,,0.54,weatherlink.com 1.10,2013-03-21 05:23:00,
2013-03-20 22:38:00,37.3,35.0,30.28,SSW,212,0.0,4.0,90,0.00,,,0.54,weatherlink.com 1.10,2013-03-21 05:38:00,
2013-03-20 22:53:00,37.6,34.0,30.29,WNW,288,0.0,1.0,88,0.00,,,0.54,weatherlink.com 1.10,2013-03-21 05:53:00,
2013-03-20 23:08:00,36.8,34.0,30.29,WNW,292,0.0,1.0,90,0.00,,,0.54,weatherlink.com 1.10,2013-03-21 06:08:00,
2013-03-20 23:23:00,36.9,35.0,30.30,WNW,293,0.0,0.0,91,0.00,,,0.54,weatherlink.com 1.10,2013-03-21 06:23:00,
2013-03-20 23:38:00,36.4,34.0,30.30,WNW,293,0.0,0.0,92,0.00,,,0.54,weatherlink.com 1.10,2013-03-21 06:38:00,
2013-03-20 23:53:00,36.2,35.0,30.30,WNW,292,0.0,1.0,94,0.00,,,0.54,weatherlink.com 1.10,2013-03-21 06:53:00,